Weather History for Milan, Italy

Change the Weather History Date:

Sunday, October 20, 2013

  Actual Average Record
Temperature  
Mean Temperature 56 °F -  
Max Temperature 59 °F 56 °F 70 °F (2014)
Min Temperature 53 °F 37 °F 32 °F (2002)
Degree Days  
Heating Degree Days 9    
Growing Degree Days 6 (Base 50)    
Moisture  
Dew Point 53 °F    
Average Humidity 90    
Maximum Humidity 94    
Minimum Humidity 82    
Precipitation  
Precipitation 0.00 in 0.14 in - ()
Sea Level Pressure  
Sea Level Pressure 30.25 in    
Wind  
Wind Speed 3 mph ()    
Max Wind Speed 7 mph    
Max Gust Speed 20 mph    
Visibility 1.6 miles    
Events Rain    
Averages and records for this station are not official NWS values.
T = Trace of Precipitation, MM = Missing Value Source: Averaged Metar Reports

Daily Weather History Graph

Daily Weather History Graph

Search for Another Location

Airport:

Trip Planner

Search our weather history database for the weather conditions in past years. The results will help you decide how hot, cold, wet, or windy it might be!

Date:

Astronomy

Oct. 20, 2013 Rise Set
Actual Time 7:48 AM CEST 6:30 PM CEST
Civil Twilight 7:18 AM CEST 7:00 PM CEST
Nautical Twilight 6:43 AM CEST 7:35 PM CEST
Astronomical Twilight 6:09 AM CEST 8:09 PM CEST
Moon 7:22 PM CEST (10/20) 9:14 AM CEST (10/20)
Length of Visible Light 11h 42m
Length of Day
10h 42m
Full, 98% of the Moon is Illuminated
Oct 20
Full
Oct 27
Last Quarter
Nov 3
New
Nov 10
First Quarter
Nov 17
Full

Hourly Weather History & Observations

Time (CEST) Temp. Dew Point Humidity Pressure Visibility Wind Dir Wind Speed Gust Speed Precip Events Conditions
12:20 AM 55.4 °F 53.6 °F 94% 30.27 in 1.6 mi North 2.3 mph - N/A   Overcast
12:50 AM 55.4 °F 53.6 °F 94% 30.27 in 1.2 mi Variable 1.2 mph - N/A   Overcast
1:20 AM 55.4 °F 53.6 °F 94% 30.27 in 1.1 mi North 4.6 mph - N/A   Overcast
1:50 AM 55.4 °F 53.6 °F 94% 30.27 in 1.2 mi NNW 4.6 mph - N/A   Overcast
2:20 AM 55.4 °F 53.6 °F 94% 30.27 in 1.2 mi Variable 1.2 mph - N/A   Overcast
2:50 AM 55.4 °F 53.6 °F 94% 30.27 in 1.2 mi NNW 2.3 mph - N/A   Overcast
3:20 AM 53.6 °F 51.8 °F 94% 30.27 in 1.2 mi NNW 3.5 mph - N/A   Overcast
3:50 AM 55.4 °F 53.6 °F 94% 30.27 in 1.6 mi North 2.3 mph - N/A   Overcast
4:20 AM 55.4 °F 51.8 °F 88% 30.24 in 1.6 mi Variable 1.2 mph - N/A   Overcast
4:50 AM 55.4 °F 51.8 °F 88% 30.24 in 1.6 mi North 3.5 mph - N/A   Overcast
5:20 AM 53.6 °F 51.8 °F 94% 30.24 in 1.6 mi NNW 2.3 mph - N/A   Overcast
5:50 AM 55.4 °F 51.8 °F 88% 30.24 in 1.6 mi Variable 1.2 mph - N/A   Overcast
6:20 AM 53.6 °F 51.8 °F 94% 30.24 in 1.6 mi North 2.3 mph - N/A   Overcast
6:50 AM 53.6 °F 51.8 °F 94% 30.24 in 1.6 mi NNW 3.5 mph - N/A   Overcast
7:20 AM 55.4 °F 51.8 °F 88% 30.24 in 1.6 mi NNW 2.3 mph - N/A   Overcast
7:50 AM 55.4 °F 51.8 °F 88% 30.24 in 1.6 mi NNW 2.3 mph - N/A   Overcast
8:20 AM 55.4 °F 51.8 °F 88% 30.24 in 1.2 mi North 3.5 mph - N/A   Overcast
8:50 AM 55.4 °F 51.8 °F 88% 30.27 in 1.2 mi North 3.5 mph - N/A   Overcast
9:20 AM 55.4 °F 51.8 °F 88% 30.27 in 1.6 mi Calm Calm - N/A   Overcast
9:50 AM 55.4 °F 51.8 °F 88% 30.27 in 1.6 mi North 3.5 mph - N/A   Overcast
10:20 AM 57.2 °F 51.8 °F 82% 30.27 in 1.6 mi Variable 1.2 mph - N/A   Overcast
10:50 AM 57.2 °F 53.6 °F 88% 30.27 in 1.6 mi North 5.8 mph - N/A   Overcast
11:20 AM 57.2 °F 53.6 °F 88% 30.27 in 1.6 mi NNW 3.5 mph - N/A   Overcast
11:50 AM 57.2 °F 53.6 °F 88% 30.30 in 1.6 mi Variable 2.3 mph - N/A   Overcast
12:20 PM 57.2 °F 53.6 °F 88% 30.30 in 1.6 mi North 3.5 mph - N/A   Overcast
12:50 PM 59.0 °F 53.6 °F 82% 30.30 in 1.6 mi Variable 2.3 mph - N/A   Overcast
1:20 PM 57.2 °F 53.6 °F 88% 30.30 in 1.6 mi Variable 1.2 mph - N/A   Light Drizzle
1:50 PM 59.0 °F 53.6 °F 82% 30.27 in 1.1 mi Variable 2.3 mph - N/A   Overcast
2:20 PM 59.0 °F 53.6 °F 82% 30.24 in 1.2 mi NNE 6.9 mph - N/A   Overcast
2:50 PM 57.2 °F 53.6 °F 88% 30.24 in 1.2 mi NNE 3.5 mph - N/A   Overcast
3:20 PM 59.0 °F 53.6 °F 82% 30.21 in 1.4 mi NE 3.5 mph - N/A   Overcast
3:50 PM 59.0 °F 53.6 °F 82% 30.21 in 1.6 mi North 3.5 mph - N/A   Overcast
4:20 PM 59.0 °F 53.6 °F 82% 30.21 in 1.9 mi Variable 2.3 mph - N/A   Overcast
4:50 PM 57.2 °F 55.4 °F 94% 30.24 in 1.9 mi WSW 4.6 mph - N/A   Overcast
5:20 PM 57.2 °F 55.4 °F 94% 30.24 in 1.2 mi West 6.9 mph - N/A   Overcast
5:50 PM 55.4 °F 53.6 °F 94% 30.24 in 1.2 mi NW 5.8 mph - N/A   Overcast
6:20 PM 55.4 °F 53.6 °F 94% 30.24 in 1.2 mi NNE 3.5 mph - N/A   Overcast
6:50 PM 55.4 °F 53.6 °F 94% 30.24 in 1.2 mi NNW 4.6 mph - N/A   Overcast
7:20 PM 55.4 °F 53.6 °F 94% 30.24 in 1.9 mi NNW 6.9 mph - N/A   Overcast
7:50 PM 55.4 °F 53.6 °F 94% 30.21 in 1.9 mi Variable 4.6 mph 19.6 mph N/A Rain Light Rain
8:20 PM 55.4 °F 53.6 °F 94% 30.27 in 1.9 mi West 4.6 mph - N/A Rain Light Rain
8:50 PM 55.4 °F 53.6 °F 94% 30.24 in 2.2 mi North 3.5 mph - N/A   Overcast
9:20 PM 55.4 °F 53.6 °F 94% 30.24 in 2.2 mi Variable 3.5 mph - N/A   Overcast
9:50 PM 55.4 °F 53.6 °F 94% 30.24 in 2.2 mi Variable 2.3 mph - N/A Rain Light Rain
10:20 PM 55.4 °F 53.6 °F 94% 30.24 in 2.2 mi NNW 2.3 mph - N/A   Overcast
10:50 PM 55.4 °F 53.6 °F 94% 30.24 in 2.2 mi NW 5.8 mph - N/A   Overcast
11:20 PM 55.4 °F 53.6 °F 94% 30.24 in 2.2 mi NNW 4.6 mph - N/A   Overcast
11:50 PM 55.4 °F 53.6 °F 94% 30.24 in 2.2 mi Variable 2.3 mph - N/A   Overcast